Location: Asheville, NC
(35.6000°N, 82.5500°W)
Time: 18:28:55
(UTC-05:00)

Tiangong 1 - Visible Passes

Search period start: 12 December 2017 00:00
Search period end: 22 December 2017 00:00
Orbit: 276 x 303 km, 42.8° (Epoch: 12 December)

Date Brightness Start Highest point End Pass type
(mag) Time Alt. Az. Time Alt. Az. Time Alt. Az.
16 Dec 3.9 07:00:41 10° S 07:01:59 13° SE 07:03:17 10° ESE visible
17 Dec 2.8 07:03:42 10° SSW 07:05:54 28° SE 07:08:08 10° E visible
19 Dec 3.6 05:39:15 14° SE 05:39:19 14° SE 05:40:43 10° ESE visible
20 Dec 3.1 05:43:47 23° ESE 05:43:47 23° ESE 05:45:10 10° E visible
21 Dec 2.9 05:47:54 22° ENE 05:47:54 22° ENE 05:49:00 10° ENE visible
